Weather in Hubynyha

Ukraine / Dnipropetrovsk Region     48°48′28″N   35°15′22″E
temp.,
°C
wind,
m/s
gust,
m/s
humid.,
%
clouds,
%
prec.,
mm/h
press.,
hPa
HPBL,
m
16 june, wed
wed1600:00+18se1183100 0.4 100911
03:00+18se2284100 0.6 100914
06:00+18e128698 0.1 100953
09:00+21ese3474100 0.4 1010472
12:00+24se566288 2.6 10111302
15:00+25se32546 2.8 10111439
18:00+24se33591 0.0 10111258
21:00+19ne22730 0.1 101212
17 june, thu
thu1700:00+18ne3580100 0.0 101266
03:00+17ene3487100 0.0 101390
06:00+18nne3590100 0.3 1013149
09:00+18nne4995100 3.8 1014356
12:00+19ne61193100 3.6 1015376
15:00+20ne4991100 6.5 1015443
18:00+21nne4108997 0.3 1015327
21:00+20ne7149098 2.7 1016407
18 june, fri
fri1800:00+20ne9189198 2.5 1016680
03:00+19ene8149289 3.3 1017672
06:00+18ene61293100 0.1 1018652
09:00+18e61191100 0.2 1020628
12:00+21e698194 0.1 1020961
15:00+23e696976 0.3 10201381
18:00+22ese6879100 0.1 1020834
21:00+18e229399 0.1 102135
19 june, sat
sat1900:00+18ene5128576 0.0 1021344
03:00+17ene4108290 0.0 1021304
06:00+17ene613824 0.0 1021452
09:00+19ene8126829 0.0 1021720
12:00+23e811613 0.0 10201094
15:00+24e8106449 0.0 10191332
18:00+24e711700 0.0 1019849
21:00+20ene514790 0.0 1020377
20 june, sun
sun2000:00+19ene614812 0.0 1019363
03:00+17ene614756 0.0 1019310
06:00+17ene6147868 0.0 1019319
09:00+21ene61365100 0.0 1018517
12:00+25e81252100 0.0 1017842
15:00+26e71260100 0.0 10161201
18:00+24e71266100 0.0 1016897
21:00+20ene5138021 0.4 1016373